EHI
4 4 3 1 0 0 0 0 0 0 0 0 0 0 0 0 0 0 0 0 0 0 0 0 0 0 0 0 0 0 0 0 0 0 0 0 0 0 0 0 0 0 0
4 4 3 1 0 0 0 0 0 0 0 0 0 0 0 0 0 0 0 0 0 0 0 0 0 0 0 0 0 0 0 0 0 0 0 0 0 0 0 0 0 0 0
2 4 3 1 0 0 0 0 0 0 0 0 0 0 0 0 0 0 0 0 0 0 0 0 0 0 0 0 0 0 0 0 0 0 0 0 0 0 0 0 0 0 0
1 3 3 1 0 1 1 0 0 0 0 0 0 0 0 0 0 0 0 0 0 0 0 0 0 0 0 0 0 0 0 0 0 0 0 0 0 0 0 0 0 0 0
1 2 2 1 0 1 1 1 0 0 0 0 0 0 0 0 0 0 0 0 0 0 0 0 0 0 0 0 0 0 0 0 0 0 0 0 0 0 0 0 0 0 0
1 1 1 0 0 1 1 1 0 0 0 0 0 0 0 0 0 0 0 0 0 0 0 0 0 0 0 0 0 0 0 0 0 0 0 0 0 0 0 0 0 0 0
0 0 0 0 0 0 1 1 0 0 0 0 0 0 0 0 0 0 0 0 0 0 0 0 0 0 0 0 0 0 0 0 0 0 0 0 0 0 0 0 0 0 0
0 0 0 0 0 0 0 0 0 1 1 1 1 1 2 1 1 0 0 0 0 0 0 0 0 0 0 0 0 0 0 0 0 0 0 0 0 0 0 0 0 0 0
1 0 0 0 1 1 0 0 1 2 2 2 2 2 2 2 1 0 0 0 0 0 0 0 0 0 0 0 0 0 0 0 0 0 0 0 0 0 0 0 0 0 0
1 0 0 1 2 2 1 1 2 2 2 1 1 1 1 1 0 0 0 0 0 0 0 0 0 0 0 0 0 0 0 0 0 0 0 0 0 0 0 0 0 0 0
1 0 0 1 2 3 2 1 2 1 1 0 0 0 0 0 0 0 0 0 0 0 0 0 0 0 0 0 0 0 0 0 0 0 0 0 0 0 0 0 0 0 0
1 1 0 0 1 2 1 1 1 0 0 0 0 0 0 0 0 0 0 0 0 0 0 0 0 0 0 0 0 0 0 0 0 0 0 0 0 0 0 0 0 0 0
2 1 1 1 1 1 0 0 0 0 0 0 0 0 0 0 0 0 0 0 0 0 0 0 0 0 0 0 0 0 0 0 0 0 0 0 0 0 0 0 0 0 0
2 1 1 2 3 3 1 0 0 0 0 0 0 0 0 0 0 0 0 0 0 0 0 0 0 0 0 0 0 0 0 0 0 0 0 0 0 0 0 0 0 0 0
1 0 1 3 5 5 3 1 0 0 0 0 0 0 0 0 0 0 0 0 0 0 0 0 0 0 0 0 0 0 0 0 0 0 0 0 0 0 0 0 0 0 0
1 0 1 2 5 5 3 1 0 0 0 0 0 0 0 0 0 0 0 0 0 0 0 0 0 0 0 0 0 0 0 0 0 0 0 0 0 0 0 0 0 0 0
2 1 1 2 3 3 3 2 1 1 2 1 0 0 1 1 0 0 0 0 0 0 0 0 0 0 0 0 0 0 0 0 0 0 0 0 0 0 0 0 0 0 0
3 2 1 1 1 1 3 3 3 3 3 2 1 1 2 2 1 0 1 1 0 0 0 0 0 0 0 0 0 0 0 0 0 0 0 0 0 0 0 0 0 0 0
3 3 1 1 0 1 2 3 3 3 3 2 1 1 2 2 1 1 2 2 1 0 1 1 0 0 0 0 0 0 0 0 0 0 0 0 0 0 0 0 0 0 0
3 3 2 0 0 0 1 2 3 3 3 2 1 0 2 3 3 3 3 3 1 1 2 2 1 0 0 0 0 0 0 0 0 0 0 0 0 0 0 0 0 0 0
2 2 1 0 0 0 0 1 1 2 3 3 2 1 3 4 5 4 3 3 3 3 3 3 2 0 0 0 0 0 0 0 0 0 0 0 0 0 0 0 0 0 0
1 1 0 0 0 0 0 0 0 1 2 3 3 3 3 5 6 5 4 3 3 3 3 2 1 0 0 0 0 0 0 0 0 0 0 0 0 0 0 0 0 0 0
0 0 0 0 0 0 0 0 0 1 2 3 4 4 5 6 6 6 5 4 3 3 3 1 0 0 0 0 0 0 0 0 0 0 0 0 0 0 0 0 0 0 0
0 0 0 0 0 0 0 0 0 1 2 3 4 6 7 7 7 6 5 4 4 3 2 1 0 0 0 0 0 0 0 0 0 0 0 0 0 0 0 0 0 0 0
0 0 0 0 0 0 0 0 0 0 2 3 5 6 7 7 7 5 3 3 3 2 1 0 0 0 0 0 0 0 0 0 0 0 0 0 0 0 0 0 0 0 0
0 0 0 0 0 0 0 0 0 1 2 4 6 6 6 7 6 3 1 1 2 1 0 0 0 0 0 0 0 0 0 0 0 0 0 0 0 0 0 0 0 0 0
Wind_Speed
9 8 7 6 5 5 5 5 5 3 3 2 2 2 1 1 2 2 3 3 3 4 3 2 3 3 3 2 3 3 2 1 1 2 2 2 3 3 2 3 3 4 4
9 10 9 7 6 5 5 6 5 4 4 2 1 1 2 1 2 2 3 3 3 3 2 2 2 3 2 3 3 3 2 1 1 1 1 1 2 3 2 2 3 3 3
11 11 10 8 7 6 5 5 5 5 5 4 1 1 2 2 2 2 1 2 3 3 3 3 2 2 2 2 2 2 2 2 2 2 2 1 1 0 2 2 3 3 3
9 10 9 9 7 6 6 5 5 5 5 4 2 1 2 1 1 2 1 2 3 3 3 3 3 3 3 2 2 3 2 2 2 2 2 1 2 2 1 2 2 3 4
9 10 10 9 8 7 6 5 4 4 4 4 3 1 1 1 2 2 3 2 3 3 3 3 3 3 3 3 3 3 2 2 1 1 2 2 2 1 2 1 1 2 2
9 9 9 8 7 7 5 4 4 4 4 4 4 2 2 2 3 2 2 2 2 2 3 3 3 3 3 3 2 2 2 2 3 2 2 2 2 1 2 1 1 1 0
10 9 9 9 8 8 7 5 5 5 4 4 4 4 3 2 3 2 2 1 2 2 2 3 2 2 2 2 2 2 2 2 2 2 2 2 2 1 2 2 1 1 0
10 10 10 9 8 8 8 7 6 5 5 4 4 4 3 2 2 2 2 2 2 2 3 2 2 2 2 2 3 2 2 2 2 2 2 2 2 3 2 2 1 1 1
10 10 10 10 9 8 8 8 7 6 6 4 4 3 3 3 3 2 2 2 2 2 3 3 2 3 3 3 2 2 2 3 3 3 3 2 2 2 2 2 2 2 1
10 10 9 10 9 8 8 8 8 7 6 5 4 4 4 3 2 2 2 2 2 2 2 2 3 3 3 3 2 2 2 2 2 2 3 3 2 2 2 2 2 2 2
9 10 9 9 9 8 8 7 7 6 6 6 5 4 4 4 3 2 2 2 2 2 2 2 2 3 3 3 2 2 2 2 1 1 3 3 2 2 2 2 2 2 2
8 9 9 8 8 8 8 8 7 7 6 6 5 5 4 4 4 3 3 3 2 2 2 2 1 2 2 2 2 1 1 2 2 3 3 2 2 2 2 2 2 1 1
8 8 8 8 8 8 8 8 8 7 7 6 6 6 5 5 4 4 4 3 3 3 2 2 2 2 2 2 2 2 1 2 2 2 3 2 2 2 1 1 1 1 1
8 8 7 7 7 7 8 8 8 7 8 7 6 6 6 5 4 4 4 3 3 3 2 2 2 2 2 1 1 2 2 2 2 2 2 2 2 2 2 1 2 2 2
7 8 8 8 8 7 7 7 8 7 8 8 7 7 6 6 5 4 4 3 3 3 3 2 2 2 2 1 2 1 1 1 1 2 2 3 5 6 4 3 2 3 2
6 7 7 8 8 8 8 7 8 8 8 8 7 7 6 6 6 5 4 4 3 3 2 2 3 2 2 4 4 2 1 1 1 1 1 2 3 4 4 4 4 3 2
6 6 7 7 8 8 8 7 8 8 8 8 8 8 7 6 6 6 5 4 4 3 3 2 3 3 3 4 3 1 0 1 1 1 1 1 2 2 2 2 1 1 1
5 5 5 6 6 7 8 7 7 8 8 8 8 7 7 7 6 6 5 5 4 4 3 3 3 3 3 5 4 2 1 0 0 0 0 1 1 1 2 1 1 0 1
5 5 5 6 6 6 8 7 7 7 7 7 8 8 8 7 7 6 6 5 4 4 4 4 3 3 3 5 5 3 1 1 1 1 0 1 1 2 3 2 1 1 1
4 4 4 5 5 5 7 7 7 8 8 8 8 8 8 8 7 6 5 4 4 4 4 3 3 4 4 6 7 5 1 1 1 1 0 1 2 2 2 1 0 2 2
4 4 3 4 4 5 6 7 7 7 7 7 7 7 7 8 7 6 5 5 4 4 4 3 3 3 4 6 7 6 2 2 1 1 1 1 3 3 1 1 0 1 2
3 4 4 3 3 4 5 6 6 6 7 7 7 7 7 7 7 6 5 5 5 5 4 4 3 2 3 5 6 7 5 2 1 1 1 2 4 2 1 1 1 2 2
3 3 4 3 3 4 4 5 5 6 7 8 8 7 7 6 6 6 6 5 4 4 4 3 3 3 2 4 7 7 6 4 2 1 2 2 2 1 1 2 3 2 1
2 3 3 3 3 3 4 5 4 6 6 7 7 7 7 6 6 4 4 4 4 4 4 4 3 3 2 3 3 3 3 3 2 1 1 1 1 1 1 1 2 1 1
2 2 3 3 3 3 4 5 5 6 6 6 7 7 6 6 5 4 3 3 3 4 4 3 3 4 3 3 6 5 3 3 3 3 1 1 1 1 1 1 1 0 0
3 2 3 3 3 3 3 4 5 6 6 6 6 5 5 5 5 5 3 3 3 4 5 5 5 3 5 6 7 6 5 5 5 3 2 1 1 1 1 1 0 0 1
Wind_Direction
167 155 156 153 161 159 149 149 147 133 110 88 80 85 72 53 59 64 49 28 38 35 44 48 54 53 57 45 68 70 50 34 48 50 35 38 57 77 63 46 50 52 55
166 161 166 163 167 162 157 151 145 130 118 114 119 131 124 104 89 62 47 27 43 40 50 57 70 68 61 49 60 67 41 5 32 55 54 66 27 20 61 60 57 58 52
173 168 169 167 166 167 166 153 149 143 138 135 101 75 72 61 80 79 57 33 49 44 34 43 65 82 78 72 68 67 61 15 356 46 68 70 79 22 19 46 66 61 53
176 167 168 166 169 166 162 161 162 153 141 133 109 114 108 104 107 120 112 83 64 63 43 35 44 70 74 71 56 73 68 60 11 360 13 75 120 127 82 9 47 63 61
174 167 168 165 166 161 160 164 155 136 128 125 124 123 95 100 104 102 100 89 69 62 63 42 36 55 63 70 63 61 50 55 50 19 3 14 12 35 107 100 21 37 49
174 166 162 157 156 150 152 154 142 126 126 132 143 146 117 102 101 99 102 103 94 61 66 61 46 52 52 59 62 66 61 44 34 22 28 44 34 22 54 84 86 90 55
170 167 162 162 158 155 158 154 145 145 150 158 159 145 142 139 123 117 115 102 101 90 75 73 61 57 50 55 53 58 72 66 56 35 23 32 27 39 61 70 58 60 65
170 168 164 162 160 162 163 161 161 160 160 164 158 150 149 132 115 111 111 102 97 106 108 95 88 77 54 65 55 33 33 49 63 58 49 35 25 37 57 69 67 34 19
167 164 162 162 164 167 168 168 166 162 161 161 156 151 138 122 113 117 109 104 110 110 108 113 105 92 67 55 66 48 40 48 40 39 50 46 42 45 42 41 70 93 61
163 163 164 163 165 165 168 170 165 165 162 164 165 152 137 133 131 120 107 105 99 96 114 125 122 116 107 84 59 44 34 69 70 57 58 46 43 41 36 25 25 66 103
161 161 162 162 159 161 165 166 164 164 162 165 160 147 142 145 141 132 129 121 109 112 118 104 106 115 114 108 90 47 28 46 65 70 80 69 58 44 31 35 35 43 73
152 153 154 155 158 166 171 170 170 169 166 166 159 152 152 155 155 155 149 142 133 135 136 126 116 109 105 106 116 102 51 47 47 51 64 63 66 54 40 43 42 53 73
145 149 153 159 164 171 173 173 173 171 165 164 160 160 164 165 162 159 158 158 158 160 152 135 131 118 118 113 103 100 80 76 68 60 60 55 60 49 46 47 37 44 61
153 154 157 164 167 173 176 175 175 171 165 164 164 164 163 161 159 156 159 165 160 152 148 141 128 125 123 114 119 106 83 79 78 74 65 56 60 47 35 46 28 48 53
154 159 166 169 171 174 178 177 173 172 169 164 169 170 168 162 160 159 162 165 161 158 152 146 134 129 124 97 81 88 98 100 95 88 86 87 85 76 60 54 37 41 41
162 166 173 173 175 177 176 176 174 174 169 167 171 166 163 160 162 165 169 170 162 160 157 156 146 137 121 110 95 64 33 35 99 123 120 121 104 100 89 76 63 63 60
165 172 178 176 179 179 174 175 177 174 170 168 167 165 164 165 170 172 171 169 164 168 167 165 154 147 142 138 135 123 346 351 22 74 108 85 93 112 128 99 61 35 50
162 172 176 172 176 176 173 172 171 171 170 167 166 164 167 168 168 169 170 171 169 169 171 178 173 157 165 162 164 177 231 279 299 356 127 138 135 131 121 108 88 214 233
158 166 174 168 170 174 170 167 169 169 167 168 170 170 169 163 166 171 171 172 173 170 172 178 176 169 168 172 170 165 192 205 223 212 232 144 126 94 92 91 4 326 301
145 155 164 164 167 168 163 164 170 172 173 173 173 169 163 160 167 170 167 166 170 172 168 173 177 174 169 175 176 173 182 214 215 184 122 98 114 99 89 113 10 310 301
134 142 153 165 170 166 163 166 171 178 171 164 162 160 159 161 163 163 163 162 164 165 171 177 185 177 168 170 175 176 184 205 210 176 176 150 137 130 112 62 277 275 297
131 148 154 161 166 165 170 175 176 169 155 153 153 158 159 163 164 162 167 168 166 170 179 179 186 180 166 164 177 181 191 195 158 192 164 151 149 157 190 242 272 301 324
135 143 149 154 167 171 177 176 168 155 152 152 157 161 160 159 160 162 168 171 170 172 179 179 186 186 165 162 167 173 184 195 175 145 130 145 168 184 234 266 285 304 296
149 145 146 153 166 176 176 169 159 154 154 159 161 162 162 161 163 162 166 170 177 178 182 186 185 175 162 152 153 163 171 171 172 171 149 154 201 219 236 268 271 243 224
147 154 159 162 171 183 176 163 159 161 162 164 162 165 163 161 158 149 146 170 169 174 175 181 171 169 180 185 169 165 169 166 167 156 151 167 172 210 235 240 244 232 263
156 160 159 161 180 183 177 169 169 169 170 169 167 164 160 157 153 144 124 76 112 129 143 147 148 142 148 144 143 145 146 149 156 147 166 196 200 208 212 206 242 274 269